IBE45A LEPA-LEMD

Flight info

Callsign IBE45A
Flight time 1h 3m
Altitude 31000
Route EPAMA N733 PRADO
Aircraft A333/H-SDE3GHIJ2J3J5M1RVWXY/LB2D1

Departure

Time 2026-05-01 12:56
Airport Palma de Mallorca Airport (LEPA)

Arrival

Time 2026-05-01 14:00
Airport Adolfo Suárez Madrid–Barajas Airport (LEMD)
Time Latitude Longitude Altitude Speed Heading
2026-05-01 12:32 39.54651 2.73456 39 ft 0 kts 256°
2026-05-01 12:49 39.54657 2.73473 38 ft 2 kts 238°
2026-05-01 12:49 39.54668 2.73488 35 ft 2 kts 206°
2026-05-01 12:49 39.54683 2.73494 37 ft 2 kts 178°
2026-05-01 12:50 39.54700 2.73491 36 ft 2 kts 160°
2026-05-01 12:50 39.54708 2.73487 36 ft 0 kts 153°
2026-05-01 12:52 39.54691 2.73499 36 ft 2 kts 149°
2026-05-01 12:52 39.54676 2.73511 36 ft 3 kts 149°
2026-05-01 12:53 39.54619 2.73604 39 ft 8 kts 117°
2026-05-01 12:53 39.54585 2.73641 39 ft 1 kts 148°
2026-05-01 12:53 39.54578 2.73638 39 ft 1 kts 193°
2026-05-01 12:54 39.54557 2.73616 38 ft 7 kts 220°
2026-05-01 12:54 39.54451 2.73410 40 ft 18 kts 238°
2026-05-01 12:54 39.54416 2.73334 41 ft 12 kts 238°
2026-05-01 12:55 39.54292 2.73203 41 ft 6 kts 126°
2026-05-01 12:55 39.54272 2.73276 42 ft 12 kts 107°
2026-05-01 12:55 39.54269 2.73405 41 ft 18 kts 89°
2026-05-01 12:56 39.54313 2.73576 38 ft 25 kts 59°
2026-05-01 12:56 39.54523 2.74026 38 ft 95 kts 59°
2026-05-01 12:56 39.54974 2.74995 217 ft 146 kts 60°
2026-05-01 12:56 39.55543 2.76198 871 ft 166 kts 58°
2026-05-01 12:57 39.56184 2.77467 1617 ft 167 kts 57°
2026-05-01 12:57 39.57576 2.79997 2739 ft 187 kts 61°
2026-05-01 12:57 39.58252 2.81547 3174 ft 205 kts 62°
2026-05-01 12:58 39.58974 2.83196 3781 ft 215 kts 61°
2026-05-01 12:58 39.59739 2.84886 4547 ft 217 kts 62°
2026-05-01 12:58 39.60518 2.86570 5344 ft 219 kts 60°
2026-05-01 12:59 39.62162 2.90010 6817 ft 232 kts 57°
2026-05-01 12:59 39.63324 2.91488 7518 ft 241 kts 31°
2026-05-01 12:59 39.66584 2.91292 8753 ft 259 kts 323°
2026-05-01 13:00 39.67846 2.86939 9868 ft 278 kts 261°
2026-05-01 13:00 39.67675 2.84414 10516 ft 287 kts 272°
2026-05-01 13:01 39.68146 2.78944 11186 ft 325 kts 277°
2026-05-01 13:01 39.68366 2.75925 11729 ft 336 kts 274°
2026-05-01 13:01 39.70017 2.70242 13162 ft 350 kts 300°
2026-05-01 13:02 39.71122 2.67403 13840 ft 354 kts 294°
2026-05-01 13:07 39.75008 1.99221 24858 ft 408 kts 252°
2026-05-01 13:07 39.74169 1.95684 25252 ft 410 kts 252°
2026-05-01 13:07 39.73324 1.92128 25640 ft 412 kts 252°
2026-05-01 13:08 39.72487 1.88612 25993 ft 414 kts 252°
2026-05-01 13:08 39.71632 1.85024 26337 ft 417 kts 252°
2026-05-01 13:08 39.70771 1.81417 26711 ft 419 kts 252°
2026-05-01 13:08 39.69906 1.77800 27082 ft 420 kts 252°
2026-05-01 13:09 39.69037 1.74169 27446 ft 422 kts 252°
2026-05-01 13:09 39.68160 1.70515 27802 ft 424 kts 252°
2026-05-01 13:09 39.67278 1.66842 28164 ft 426 kts 252°
2026-05-01 13:09 39.66405 1.63214 28501 ft 427 kts 252°
2026-05-01 13:10 39.65514 1.59511 28841 ft 429 kts 252°
2026-05-01 13:10 39.64619 1.55803 29182 ft 431 kts 252°
2026-05-01 13:10 39.63720 1.52082 29512 ft 433 kts 251°
2026-05-01 13:10 39.62816 1.48349 29821 ft 435 kts 251°
2026-05-01 13:11 39.61912 1.44619 30130 ft 437 kts 251°
2026-05-01 13:11 39.61004 1.40853 30431 ft 439 kts 252°
2026-05-01 13:11 39.60322 1.36986 30703 ft 441 kts 259°
2026-05-01 13:11 39.59923 1.33038 30980 ft 443 kts 263°
2026-05-01 13:12 39.59659 1.29051 31157 ft 440 kts 264°
2026-05-01 13:12 39.59467 1.25153 31184 ft 424 kts 265°
2026-05-01 13:12 39.59302 1.21398 31180 ft 410 kts 265°
2026-05-01 13:13 39.58960 1.14111 31188 ft 404 kts 264°
2026-05-01 13:13 39.58567 1.06863 31186 ft 405 kts 264°
2026-05-01 13:14 39.58143 0.99550 31195 ft 406 kts 264°
2026-05-01 13:14 39.57711 0.92242 31200 ft 406 kts 264°
2026-05-01 13:15 39.57277 0.84953 31196 ft 405 kts 264°
2026-05-01 13:15 39.56845 0.77734 31194 ft 404 kts 264°
2026-05-01 13:16 39.56405 0.70460 31193 ft 405 kts 264°
2026-05-01 13:16 39.55960 0.63170 31192 ft 405 kts 264°
2026-05-01 13:17 39.55058 0.48633 31199 ft 405 kts 264°
2026-05-01 13:18 39.54368 0.37697 31208 ft 405 kts 264°
2026-05-01 13:18 39.53907 0.30492 31205 ft 402 kts 264°
2026-05-01 13:19 39.53441 0.23267 31200 ft 402 kts 264°
2026-05-01 13:20 39.52735 0.12483 31205 ft 401 kts 264°
2026-05-01 13:20 39.52258 0.05279 31208 ft 402 kts 264°
2026-05-01 13:21 39.51534 -0.05517 31212 ft 398 kts 265°
2026-05-01 13:21 39.51051 -0.12639 31207 ft 396 kts 265°
2026-05-01 13:22 39.50565 -0.19752 31207 ft 396 kts 265°
2026-05-01 13:22 39.50077 -0.26824 31208 ft 396 kts 265°
2026-05-01 13:23 39.49510 -0.33915 31210 ft 396 kts 263°
2026-05-01 13:23 39.49215 -0.37460 31068 ft 396 kts 263°
2026-05-01 13:23 39.48926 -0.41083 30848 ft 411 kts 263°
2026-05-01 13:24 39.48861 -0.44850 30596 ft 427 kts 271°
2026-05-01 13:24 39.49288 -0.48695 30362 ft 435 kts 281°
2026-05-01 13:24 39.50267 -0.52361 30109 ft 437 kts 292°
2026-05-01 13:25 39.53085 -0.59322 29536 ft 434 kts 296°
2026-05-01 13:25 39.54595 -0.62711 29270 ft 432 kts 297°
2026-05-01 13:25 39.56116 -0.66072 28995 ft 431 kts 297°
2026-05-01 13:25 39.57611 -0.69375 28739 ft 429 kts 297°
2026-05-01 13:26 39.59121 -0.72740 28462 ft 430 kts 297°
2026-05-01 13:26 39.60615 -0.76097 28224 ft 429 kts 296°
2026-05-01 13:26 39.62095 -0.79447 27954 ft 426 kts 297°
2026-05-01 13:26 39.63556 -0.82766 27683 ft 421 kts 297°
2026-05-01 13:27 39.64986 -0.86023 27435 ft 419 kts 296°
2026-05-01 13:27 39.66423 -0.89304 27165 ft 415 kts 296°
2026-05-01 13:27 39.69214 -0.95679 26621 ft 397 kts 296°
2026-05-01 13:28 39.71447 -1.00777 26204 ft 384 kts 296°
2026-05-01 13:28 39.72751 -1.03758 25950 ft 376 kts 296°
2026-05-01 13:29 39.75291 -1.09579 25460 ft 363 kts 296°
2026-05-01 13:29 39.77753 -1.15205 24979 ft 352 kts 296°
2026-05-01 13:30 39.82431 -1.25908 24047 ft 331 kts 296°
2026-05-01 13:31 39.84676 -1.31078 23559 ft 323 kts 296°
2026-05-01 13:31 39.87921 -1.38539 22753 ft 311 kts 298°
2026-05-01 13:32 39.90078 -1.43348 22232 ft 304 kts 298°
2026-05-01 13:33 39.93148 -1.50375 21560 ft 290 kts 297°
2026-05-01 13:33 39.95099 -1.54903 21161 ft 284 kts 297°
2026-05-01 13:34 39.97022 -1.59383 20752 ft 281 kts 297°
2026-05-01 13:34 39.98907 -1.63782 20273 ft 278 kts 297°
2026-05-01 13:35 40.00781 -1.68163 19783 ft 275 kts 297°
2026-05-01 13:35 40.01710 -1.70338 19542 ft 274 kts 297°
2026-05-01 13:35 40.03556 -1.74663 19072 ft 272 kts 297°
2026-05-01 13:36 40.04463 -1.76789 18850 ft 270 kts 297°
2026-05-01 13:36 40.05374 -1.78927 18611 ft 269 kts 297°
2026-05-01 13:36 40.07185 -1.83183 18094 ft 267 kts 297°
2026-05-01 13:37 40.08085 -1.85299 17821 ft 266 kts 297°
2026-05-01 13:37 40.08985 -1.87418 17559 ft 266 kts 297°
2026-05-01 13:37 40.09880 -1.89530 17299 ft 264 kts 297°
2026-05-01 13:37 40.10770 -1.91625 17036 ft 263 kts 297°
2026-05-01 13:38 40.12536 -1.95793 16519 ft 260 kts 297°
2026-05-01 13:38 40.13399 -1.97830 16281 ft 258 kts 296°
2026-05-01 13:38 40.14266 -1.99879 16013 ft 257 kts 297°
2026-05-01 13:39 40.15134 -2.01930 15775 ft 258 kts 297°
2026-05-01 13:39 40.16002 -2.03981 15525 ft 258 kts 297°
2026-05-01 13:39 40.16870 -2.06029 15288 ft 256 kts 296°
2026-05-01 13:39 40.17721 -2.08048 15196 ft 252 kts 297°
2026-05-01 13:40 40.18575 -2.10066 15194 ft 254 kts 298°
2026-05-01 13:40 40.19431 -2.12089 15189 ft 254 kts 297°
2026-05-01 13:40 40.20271 -2.14078 15184 ft 252 kts 297°
2026-05-01 13:40 40.21117 -2.16085 15180 ft 251 kts 297°
2026-05-01 13:41 40.21964 -2.18094 15181 ft 252 kts 297°
2026-05-01 13:41 40.22811 -2.20106 15180 ft 251 kts 297°
2026-05-01 13:41 40.23658 -2.22116 15186 ft 251 kts 296°
2026-05-01 13:41 40.24503 -2.24127 15181 ft 253 kts 297°
2026-05-01 13:42 40.25327 -2.26140 15182 ft 255 kts 294°
2026-05-01 13:42 40.25960 -2.28311 14977 ft 255 kts 283°
2026-05-01 13:42 40.26214 -2.30591 14733 ft 251 kts 272°
2026-05-01 13:42 40.26240 -2.32878 14490 ft 250 kts 269°
2026-05-01 13:43 40.26222 -2.35153 14262 ft 250 kts 268°
2026-05-01 13:43 40.26201 -2.37430 14021 ft 249 kts 268°
2026-05-01 13:43 40.26183 -2.39660 13762 ft 247 kts 268°
2026-05-01 13:43 40.26167 -2.41931 13493 ft 246 kts 268°
2026-05-01 13:44 40.26152 -2.44152 13234 ft 247 kts 269°
2026-05-01 13:44 40.26139 -2.46395 12962 ft 246 kts 268°
2026-05-01 13:44 40.26125 -2.48630 12702 ft 245 kts 268°
2026-05-01 13:44 40.26111 -2.50866 12453 ft 245 kts 268°
2026-05-01 13:45 40.26097 -2.53096 12201 ft 244 kts 268°
2026-05-01 13:45 40.26083 -2.55281 11952 ft 242 kts 268°
2026-05-01 13:45 40.26068 -2.57477 11699 ft 241 kts 268°
2026-05-01 13:45 40.26055 -2.59674 11444 ft 241 kts 268°
2026-05-01 13:46 40.26048 -2.61866 11200 ft 240 kts 268°
2026-05-01 13:46 40.26043 -2.64041 10955 ft 239 kts 268°
2026-05-01 13:46 40.26037 -2.66213 10713 ft 237 kts 268°
2026-05-01 13:46 40.26031 -2.68379 10474 ft 239 kts 268°
2026-05-01 13:47 40.26024 -2.70565 10231 ft 241 kts 266°
2026-05-01 13:47 40.26017 -2.72760 9999 ft 241 kts 266°
2026-05-01 13:47 40.26010 -2.74956 9725 ft 241 kts 268°
2026-05-01 13:47 40.26002 -2.77116 9467 ft 240 kts 268°
2026-05-01 13:48 40.25996 -2.79300 9209 ft 239 kts 267°
2026-05-01 13:48 40.25988 -2.81465 9008 ft 237 kts 268°
2026-05-01 13:48 40.25980 -2.83629 8886 ft 237 kts 266°
2026-05-01 13:48 40.25971 -2.85784 8754 ft 236 kts 266°
2026-05-01 13:49 40.25961 -2.87932 8633 ft 235 kts 266°
2026-05-01 13:49 40.25951 -2.90071 8499 ft 235 kts 266°
2026-05-01 13:49 40.25941 -2.92218 8369 ft 235 kts 267°
2026-05-01 13:49 40.25930 -2.94355 8258 ft 235 kts 267°
2026-05-01 13:50 40.25920 -2.96468 8111 ft 233 kts 266°
2026-05-01 13:50 40.25911 -2.98122 8008 ft 233 kts 267°
2026-05-01 13:50 40.25907 -2.98800 7992 ft 233 kts 267°
2026-05-01 13:50 40.25896 -3.00928 7969 ft 233 kts 266°
2026-05-01 13:51 40.25883 -3.03054 7961 ft 233 kts 267°
2026-05-01 13:51 40.25871 -3.05182 7977 ft 233 kts 266°
2026-05-01 13:51 40.25859 -3.07273 7960 ft 232 kts 267°
2026-05-01 13:51 40.25845 -3.09388 7964 ft 232 kts 267°
2026-05-01 13:52 40.25833 -3.11495 7966 ft 231 kts 266°
2026-05-01 13:52 40.25959 -3.13604 7911 ft 233 kts 279°
2026-05-01 13:52 40.26471 -3.15621 7797 ft 234 kts 288°
2026-05-01 13:52 40.27104 -3.17540 7740 ft 223 kts 290°
2026-05-01 13:53 40.27723 -3.19341 7657 ft 211 kts 290°
2026-05-01 13:53 40.28862 -3.22691 7322 ft 199 kts 289°
2026-05-01 13:53 40.29424 -3.24366 7064 ft 201 kts 290°
2026-05-01 13:54 40.29989 -3.26054 6797 ft 203 kts 290°
2026-05-01 13:54 40.30556 -3.27751 6537 ft 204 kts 289°
2026-05-01 13:54 40.31125 -3.29460 6257 ft 205 kts 289°
2026-05-01 13:54 40.31694 -3.31167 5987 ft 203 kts 289°
2026-05-01 13:55 40.32259 -3.32857 5707 ft 201 kts 291°
2026-05-01 13:55 40.32818 -3.34532 5442 ft 199 kts 290°
2026-05-01 13:55 40.33367 -3.36178 5262 ft 193 kts 289°
2026-05-01 13:55 40.33892 -3.37750 5164 ft 183 kts 290°
2026-05-01 13:56 40.34394 -3.39252 5027 ft 177 kts 291°
2026-05-01 13:56 40.34974 -3.40643 4944 ft 177 kts 303°
2026-05-01 13:56 40.35814 -3.41828 4761 ft 178 kts 315°
2026-05-01 13:56 40.36782 -3.42844 4512 ft 178 kts 320°
2026-05-01 13:57 40.37749 -3.43838 4251 ft 172 kts 319°
2026-05-01 13:57 40.38362 -3.44463 4098 ft 165 kts 320°
2026-05-01 13:57 40.39563 -3.45690 3834 ft 163 kts 320°
2026-05-01 13:57 40.40446 -3.46587 3632 ft 156 kts 320°
2026-05-01 13:58 40.41278 -3.47436 3433 ft 152 kts 319°
2026-05-01 13:58 40.42110 -3.48280 3224 ft 150 kts 319°
2026-05-01 13:58 40.42933 -3.49114 3051 ft 150 kts 318°
2026-05-01 13:58 40.43761 -3.49959 2844 ft 152 kts 315°
2026-05-01 13:59 40.44582 -3.50793 2631 ft 153 kts 316°
2026-05-01 13:59 40.45419 -3.51642 2421 ft 150 kts 319°
2026-05-01 13:59 40.46242 -3.52485 2285 ft 152 kts 320°
2026-05-01 13:59 40.47084 -3.53338 2078 ft 153 kts 319°
2026-05-01 14:00 40.47901 -3.54177 1988 ft 142 kts 321°
2026-05-01 14:00 40.48532 -3.54808 1987 ft 85 kts 322°
2026-05-01 14:00 40.48843 -3.55128 1989 ft 28 kts 322°
2026-05-01 14:00 40.48966 -3.55250 1988 ft 24 kts 323°
2026-05-01 14:01 40.49107 -3.55409 1988 ft 29 kts 316°
2026-05-01 14:01 40.49212 -3.55611 1988 ft 23 kts 289°
2026-05-01 14:01 40.49262 -3.55762 1988 ft 14 kts 294°
2026-05-01 14:01 40.49295 -3.55882 1986 ft 13 kts 281°
2026-05-01 14:02 40.49302 -3.55999 1988 ft 13 kts 271°
2026-05-01 14:02 40.49299 -3.56117 1987 ft 13 kts 267°
2026-05-01 14:02 40.49283 -3.56221 1989 ft 9 kts 236°
2026-05-01 14:02 40.49250 -3.56241 1988 ft 5 kts 195°
2026-05-01 14:03 40.49218 -3.56247 1987 ft 5 kts 187°
2026-05-01 14:03 40.49181 -3.56252 1986 ft 5 kts 181°
2026-05-01 14:03 40.49136 -3.56253 1984 ft 8 kts 180°
2026-05-01 14:03 40.49066 -3.56252 1985 ft 12 kts 180°
2026-05-01 14:04 40.48973 -3.56252 1984 ft 15 kts 180°
2026-05-01 14:04 40.48878 -3.56271 1988 ft 9 kts 223°
2026-05-01 14:04 40.48866 -3.56344 1987 ft 10 kts 268°
2026-05-01 14:04 40.48870 -3.56409 1987 ft 12 kts 287°
2026-05-01 14:05 40.48870 -3.56517 1987 ft 9 kts 281°
2026-05-01 14:05 40.48923 -3.56545 1986 ft 10 kts 356°
2026-05-01 14:05 40.49013 -3.56548 1984 ft 15 kts
2026-05-01 14:05 40.49045 -3.56575 1987 ft 1 kts 272°
2026-05-01 14:06 40.49041 -3.56609 1987 ft 6 kts 261°
2026-05-01 14:06 40.49039 -3.56644 1987 ft 0 kts 267°